Time,TemperatureF,DewpointF,PressureIn,WindDirection,WindDirectionDegrees,WindSpeedMPH,WindSpeedGustMPH,Humidity,HourlyPrecipIn,Conditions,Clouds,dailyrainin,SoftwareType,DateUTC
2013-10-21 00:13:00,58.0,49.0,29.88,SW,228,1.0,4.0,72,0.00,,,0.00,,2013-10-21 05:13:00,
2013-10-21 00:23:00,58.0,49.0,29.87,SW,219,1.0,5.0,73,0.00,,,0.00,,2013-10-21 05:23:00,
2013-10-21 00:43:00,59.0,50.0,29.86,SW,236,1.0,5.0,72,0.00,,,0.00,,2013-10-21 05:43:00,
2013-10-21 00:52:00,59.0,51.0,29.86,SSW,201,1.0,6.0,75,0.00,,,0.00,,2013-10-21 05:52:00,
2013-10-21 01:12:00,59.0,52.0,29.85,SW,214,3.0,7.0,78,0.00,,,0.00,,2013-10-21 06:12:00,
2013-10-21 01:22:00,59.0,53.0,29.86,SW,225,1.0,7.0,81,0.00,,,0.00,,2013-10-21 06:22:00,
2013-10-21 01:42:00,59.0,54.0,29.85,SW,215,2.0,6.0,83,0.00,,,0.00,,2013-10-21 06:42:00,
2013-10-21 01:52:00,60.0,55.0,29.85,West,273,2.0,11.0,85,0.00,,,0.00,,2013-10-21 06:52:00,
2013-10-21 02:12:00,60.0,56.0,29.85,WSW,252,2.0,8.0,86,0.00,,,0.00,,2013-10-21 07:12:00,
2013-10-21 02:22:00,60.0,56.0,29.85,SW,232,2.0,6.0,87,0.00,,,0.00,,2013-10-21 07:22:00,
2013-10-21 02:42:00,60.0,56.0,29.84,SSW,197,2.0,9.0,88,0.00,,,0.00,,2013-10-21 07:42:00,
2013-10-21 02:52:00,61.0,58.0,29.84,WSW,244,1.0,8.0,89,0.00,,,0.00,,2013-10-21 07:52:00,
2013-10-21 03:12:00,61.0,58.0,29.85,WSW,237,2.0,6.0,89,0.00,,,0.00,,2013-10-21 08:12:00,
2013-10-21 03:21:00,61.0,58.0,29.85,WSW,257,2.0,7.0,89,0.00,,,0.00,,2013-10-21 08:21:00,
2013-10-21 03:42:00,61.0,58.0,29.85,SSW,207,2.0,8.0,89,0.00,,,0.00,,2013-10-21 08:42:00,
2013-10-21 03:52:00,61.0,58.0,29.84,WSW,238,4.0,12.0,90,0.00,,,0.00,,2013-10-21 08:52:00,
2013-10-21 04:11:00,61.0,58.0,29.84,SSW,201,3.0,8.0,90,0.00,,,0.00,,2013-10-21 09:11:00,
2013-10-21 04:22:00,61.0,58.0,29.83,WSW,240,1.0,6.0,89,0.00,,,0.00,,2013-10-21 09:22:00,
2013-10-21 04:43:00,62.0,59.0,29.83,SW,225,0.0,9.0,89,0.00,,,0.00,,2013-10-21 09:43:00,
2013-10-21 04:53:00,62.0,59.0,29.84,SSW,210,1.0,3.0,89,0.00,,,0.00,,2013-10-21 09:53:00,
2013-10-21 05:13:00,61.0,58.0,29.83,SW,228,2.0,6.0,90,0.00,,,0.00,,2013-10-21 10:13:00,
2013-10-21 05:23:00,61.0,58.0,29.84,WSW,249,0.0,5.0,90,0.00,,,0.00,,2013-10-21 10:23:00,
2013-10-21 05:43:00,61.0,58.0,29.83,SW,217,2.0,6.0,90,0.00,,,0.00,,2013-10-21 10:43:00,
2013-10-21 05:52:00,61.0,58.0,29.83,WSW,243,2.0,7.0,90,0.00,,,0.00,,2013-10-21 10:52:00,
2013-10-21 06:12:00,61.0,58.0,29.83,SW,221,3.0,8.0,91,0.00,,,0.00,,2013-10-21 11:12:00,
2013-10-21 06:22:00,60.0,58.0,29.83,SW,215,2.0,6.0,92,0.00,,,0.00,,2013-10-21 11:22:00,
2013-10-21 06:42:00,60.0,58.0,29.83,SW,232,1.0,4.0,93,0.00,,,0.00,,2013-10-21 11:42:00,
2013-10-21 06:52:00,60.0,58.0,29.84,WSW,241,0.0,3.0,93,0.00,,,0.00,,2013-10-21 11:52:00,
2013-10-21 07:12:00,60.0,58.0,29.85,SW,215,0.0,1.0,94,0.00,,,0.00,,2013-10-21 12:12:00,
2013-10-21 07:22:00,60.0,58.0,29.85,SW,215,0.0,2.0,94,0.00,,,0.00,,2013-10-21 12:22:00,
2013-10-21 07:42:00,61.0,59.0,29.85,SW,232,0.0,3.0,94,0.00,,,0.00,,2013-10-21 12:42:00,
2013-10-21 07:52:00,61.0,59.0,29.85,SW,228,0.0,2.0,93,0.00,,,0.00,,2013-10-21 12:52:00,
2013-10-21 08:11:00,61.0,59.0,29.85,SW,227,0.0,1.0,93,0.00,,,0.00,,2013-10-21 13:11:00,
2013-10-21 08:22:00,61.0,59.0,29.84,SW,235,0.0,1.0,94,0.00,,,0.00,,2013-10-21 13:22:00,
2013-10-21 08:42:00,61.0,60.0,29.85,SSW,195,0.0,2.0,95,0.00,,,0.00,,2013-10-21 13:42:00,
2013-10-21 08:52:00,61.0,60.0,29.85,South,179,0.0,2.0,95,0.00,,,0.00,,2013-10-21 13:52:00,
2013-10-21 09:02:00,61.0,60.0,29.85,South,179,0.0,2.0,95,0.00,,,0.00,,2013-10-21 14:02:00,
2013-10-21 09:12:00,61.0,60.0,29.85,South,179,0.0,2.0,95,0.00,,,0.00,,2013-10-21 14:12:00,
2013-10-21 09:22:00,63.0,61.0,29.86,WSW,237,0.0,2.0,94,0.00,,,0.00,,2013-10-21 14:22:00,
2013-10-21 09:42:00,64.0,61.0,29.86,SSW,202,1.0,6.0,91,0.00,,,0.00,,2013-10-21 14:42:00,
2013-10-21 09:52:00,66.0,63.0,29.87,West,276,0.0,4.0,89,0.00,,,0.00,,2013-10-21 14:52:00,
2013-10-21 10:12:00,66.0,62.0,29.88,SSW,193,1.0,5.0,88,0.00,,,0.00,,2013-10-21 15:12:00,
2013-10-21 10:21:00,67.0,63.0,29.88,SW,215,1.0,4.0,87,0.00,,,0.00,,2013-10-21 15:21:00,
2013-10-21 10:43:00,68.0,64.0,29.88,SW,226,1.0,5.0,86,0.00,,,0.00,,2013-10-21 15:43:00,
2013-10-21 10:53:00,70.0,65.0,29.88,South,186,2.0,6.0,83,0.00,,,0.00,,2013-10-21 15:53:00,
2013-10-21 11:13:00,72.0,66.0,29.88,South,177,1.0,6.0,82,0.00,,,0.00,,2013-10-21 16:13:00,
2013-10-21 11:23:00,73.0,66.0,29.88,SW,228,1.0,7.0,78,0.00,,,0.00,,2013-10-21 16:23:00,
2013-10-21 11:43:00,73.0,65.0,29.88,SSW,204,2.0,7.0,76,0.00,,,0.00,,2013-10-21 16:43:00,
2013-10-21 11:53:00,74.0,66.0,29.88,South,188,1.0,5.0,76,0.00,,,0.00,,2013-10-21 16:53:00,
2013-10-21 12:12:00,74.0,66.0,29.88,SSW,195,3.0,7.0,75,0.00,,,0.00,,2013-10-21 17:12:00,
2013-10-21 12:22:00,74.0,66.0,29.88,SW,233,2.0,7.0,75,0.00,,,0.00,,2013-10-21 17:22:00,
2013-10-21 12:43:00,74.0,66.0,29.88,SW,222,0.0,4.0,75,0.00,,,0.00,,2013-10-21 17:43:00,
2013-10-21 12:53:00,74.0,66.0,29.88,SW,218,1.0,3.0,76,0.00,,,0.00,,2013-10-21 17:53:00,
2013-10-21 13:12:00,74.0,66.0,29.88,SW,219,0.0,3.0,77,0.00,,,0.00,,2013-10-21 18:12:00,
2013-10-21 13:22:00,74.0,66.0,29.88,SW,221,0.0,4.0,75,0.00,,,0.00,,2013-10-21 18:22:00,
2013-10-21 13:42:00,75.0,67.0,29.87,SW,225,0.0,5.0,76,0.00,,,0.00,,2013-10-21 18:42:00,
2013-10-21 13:52:00,76.0,67.0,29.87,WSW,238,0.0,2.0,73,0.00,,,0.00,,2013-10-21 18:52:00,
2013-10-21 14:11:00,76.0,67.0,29.86,SW,228,1.0,4.0,75,0.00,,,0.00,,2013-10-21 19:11:00,
2013-10-21 14:22:00,78.0,67.0,29.85,SW,235,1.0,4.0,70,0.00,,,0.00,,2013-10-21 19:22:00,
2013-10-21 14:52:00,79.0,69.0,29.83,SW,233,2.0,-999.0,71,-99.99,,,-99.99,,2013-10-21 19:52:00,
2013-10-21 15:11:00,80.0,69.0,29.83,West,264,1.0,4.0,69,0.00,,,0.00,,2013-10-21 20:11:00,
2013-10-21 15:22:00,79.0,67.0,29.82,SW,233,2.0,6.0,67,0.00,,,0.00,,2013-10-21 20:22:00,
2013-10-21 15:43:00,79.0,69.0,29.82,SW,218,1.0,5.0,71,0.00,,,0.00,,2013-10-21 20:43:00,
2013-10-21 15:52:00,77.0,67.0,29.82,SW,220,0.0,2.0,72,0.00,,,0.00,,2013-10-21 20:52:00,
2013-10-21 16:12:00,76.0,67.0,29.81,SW,218,0.0,3.0,73,0.00,,,0.00,,2013-10-21 21:12:00,
2013-10-21 16:22:00,78.0,67.0,29.81,SSW,207,0.0,4.0,69,0.00,,,0.00,,2013-10-21 21:22:00,
2013-10-21 16:54:00,79.0,67.0,29.81,SW,222,0.0,3.0,66,0.00,,,0.00,,2013-10-21 21:54:00,
2013-10-21 17:13:00,78.0,67.0,29.81,SSE,154,0.0,4.0,69,0.00,,,0.00,,2013-10-21 22:13:00,
2013-10-21 17:24:00,75.0,66.0,29.81,ENE,69,5.0,8.0,74,0.00,,,0.00,,2013-10-21 22:24:00,
2013-10-21 17:44:00,74.0,66.0,29.82,East,96,3.0,6.0,77,0.00,,,0.00,,2013-10-21 22:44:00,
2013-10-21 17:53:00,74.0,66.0,29.82,ENE,64,2.0,6.0,76,0.00,,,0.00,,2013-10-21 22:53:00,
2013-10-21 18:13:00,73.0,65.0,29.82,East,84,3.0,7.0,75,0.00,,,0.00,,2013-10-21 23:13:00,
2013-10-21 18:22:00,73.0,64.0,29.83,NNE,18,2.0,6.0,74,0.00,,,0.00,,2013-10-21 23:22:00,
2013-10-21 18:34:00,73.0,64.0,29.83,NNE,18,2.0,6.0,74,0.00,,,0.00,,2013-10-21 23:34:00,
2013-10-21 18:42:00,73.0,64.0,29.83,NNE,18,2.0,6.0,74,0.00,,,0.00,,2013-10-21 23:42:00,
2013-10-21 18:52:00,71.0,62.0,29.84,ESE,105,2.0,7.0,73,0.00,,,0.00,,2013-10-21 23:52:00,
2013-10-21 19:12:00,70.0,61.0,29.85,ESE,102,1.0,6.0,74,0.00,,,0.00,,2013-10-22 00:12:00,
2013-10-21 19:22:00,69.0,61.0,29.85,SE,131,0.0,3.0,76,0.00,,,0.00,,2013-10-22 00:22:00,
2013-10-21 19:42:00,68.0,61.0,29.86,ENE,64,1.0,3.0,77,0.00,,,0.00,,2013-10-22 00:42:00,
2013-10-21 19:53:00,67.0,60.0,29.87,NE,47,2.0,5.0,77,0.00,,,0.00,,2013-10-22 00:53:00,
2013-10-21 20:12:00,67.0,60.0,29.88,NW,310,1.0,5.0,77,0.00,,,0.00,,2013-10-22 01:12:00,
2013-10-21 20:22:00,67.0,60.0,29.88,NNE,22,2.0,5.0,77,0.00,,,0.00,,2013-10-22 01:22:00,
2013-10-21 20:42:00,66.0,59.0,29.89,NNE,19,1.0,6.0,78,0.00,,,0.00,,2013-10-22 01:42:00,
2013-10-21 20:52:00,66.0,59.0,29.89,NNE,19,1.0,6.0,78,0.00,,,0.00,,2013-10-22 01:52:00,
2013-10-21 21:11:00,64.0,58.0,29.90,ESE,111,1.0,4.0,80,0.00,,,0.00,,2013-10-22 02:11:00,
2013-10-21 21:22:00,64.0,58.0,29.91,East,91,1.0,4.0,80,0.00,,,0.00,,2013-10-22 02:22:00,
2013-10-21 21:42:00,64.0,57.0,29.92,WNW,294,1.0,6.0,78,0.00,,,0.00,,2013-10-22 02:42:00,
2013-10-21 21:52:00,64.0,57.0,29.92,East,79,2.0,6.0,78,0.00,,,0.00,,2013-10-22 02:52:00,
2013-10-21 22:03:00,64.0,57.0,29.92,East,79,2.0,6.0,78,0.00,,,0.00,,2013-10-22 03:03:00,
2013-10-21 22:12:00,64.0,57.0,29.92,East,79,2.0,6.0,78,0.00,,,0.00,,2013-10-22 03:12:00,
2013-10-21 22:22:00,62.0,55.0,29.94,ESE,117,5.0,11.0,78,0.00,,,0.00,,2013-10-22 03:22:00,
2013-10-21 22:45:00,61.0,54.0,29.95,East,89,4.0,10.0,79,0.00,,,0.00,,2013-10-22 03:45:00,
2013-10-21 22:55:00,61.0,54.0,29.96,ENE,63,4.0,12.0,79,0.00,,,0.00,,2013-10-22 03:55:00,
2013-10-21 23:13:00,60.0,53.0,29.97,East,82,4.0,13.0,79,0.00,,,0.00,,2013-10-22 04:13:00,
2013-10-21 23:24:00,60.0,53.0,29.97,East,82,4.0,13.0,79,0.00,,,0.00,,2013-10-22 04:24:00,
2013-10-21 23:43:00,59.0,53.0,29.98,East,96,3.0,7.0,81,0.00,,,0.00,,2013-10-22 04:43:00,
2013-10-21 23:55:00,59.0,54.0,29.98,NE,55,3.0,6.0,82,0.00,,,0.00,,2013-10-22 04:55:00,